Weather History for Grand Marais Airport, MN

Change the Weather History Date:

Friday, September 27, 2013

  Actual Average Record
Temperature  
Mean Temperature 58 °F -  
Max Temperature 66 °F 54 °F 71 °F (2011)
Min Temperature 51 °F 36 °F 24 °F (2000)
Degree Days  
Heating Degree Days 6    
Growing Degree Days 8 (Base 50)    
Moisture  
Dew Point 50 °F    
Average Humidity 72    
Maximum Humidity 88    
Minimum Humidity 56    
Precipitation  
Precipitation 0.01 in - - ()
Sea Level Pressure  
Sea Level Pressure 30.00 in    
Wind  
Wind Speed 4 mph (SE)    
Max Wind Speed 12 mph    
Max Gust Speed 18 mph    
Visibility 10 miles    
Events Rain    
Averages and records for this station are not official NWS values.
T = Trace of Precipitation, MM = Missing Value Source: NWS Daily Summary

Daily Weather History Graph

Daily Weather History Graph

Search for Another Location

Airport:

Trip Planner

Search our weather history database for the weather conditions in past years. The results will help you decide how hot, cold, wet, or windy it might be!

Date:

Astronomy

Sep. 27, 2013 Rise Set
Actual Time 6:55 AM CDT 6:48 PM CDT
Civil Twilight 6:24 AM CDT 7:19 PM CDT
Nautical Twilight 5:48 AM CDT 7:55 PM CDT
Astronomical Twilight 5:11 AM CDT 8:32 PM CDT
Moon No Moon Rise 2:50 PM CDT (9/27)
Length of Visible Light 12h 54m
Length of Day
11h 52m
Last Quarter, 45% of the Moon is Illuminated
Sep 27
Last Quarter
Oct 4
New
Oct 11
First Quarter
Oct 18
Full
Oct 26
Last Quarter

Hourly Weather History & Observations

Time (CDT) Temp. Dew Point Humidity Pressure Visibility Wind Dir Wind Speed Gust Speed Precip Events Conditions
12:13 AM 53.6 °F 48.2 °F 82% 30.05 in 10.0 mi SSE 3.5 mph - N/A   Clear
12:33 AM 53.6 °F 48.2 °F 82% 30.05 in 10.0 mi SE 3.5 mph - N/A   Clear
12:54 AM 53.6 °F 48.2 °F 82% 30.05 in 10.0 mi Calm Calm - N/A   Clear
1:13 AM 53.6 °F 48.2 °F 82% 30.05 in 10.0 mi Calm Calm - N/A   Clear
1:33 AM 53.6 °F 48.2 °F 82% 30.05 in 10.0 mi SE 3.5 mph - N/A   Clear
1:54 AM 53.6 °F 48.2 °F 82% 30.05 in 10.0 mi SSE 3.5 mph - N/A   Clear
2:13 AM 53.6 °F 48.2 °F 82% 30.05 in 10.0 mi SSE 3.5 mph - N/A   Clear
2:33 AM 53.6 °F 48.2 °F 82% 30.05 in 10.0 mi Calm Calm - N/A   Clear
2:53 AM 53.6 °F 48.2 °F 82% 30.05 in 10.0 mi Calm Calm - N/A   Clear
3:14 AM 53.6 °F 48.2 °F 82% 30.04 in 10.0 mi Calm Calm - N/A   Clear
3:33 AM 53.6 °F 48.2 °F 82% 30.04 in 10.0 mi Calm Calm - N/A   Clear
3:53 AM 53.6 °F 48.2 °F 82% 30.04 in 10.0 mi Calm Calm - N/A   Clear
4:14 AM 53.6 °F 48.2 °F 82% 30.03 in 10.0 mi Calm Calm - N/A   Clear
4:33 AM 53.6 °F 48.2 °F 82% 30.03 in 10.0 mi Calm Calm - N/A   Clear
4:53 AM 51.8 °F 48.2 °F 88% 30.03 in 10.0 mi SE 3.5 mph - N/A   Clear
5:13 AM 53.6 °F 48.2 °F 82% 30.03 in 10.0 mi SE 3.5 mph - N/A   Clear
5:34 AM 51.8 °F 48.2 °F 88% 30.03 in 10.0 mi ESE 3.5 mph - N/A   Clear
5:53 AM 51.8 °F 48.2 °F 88% 30.03 in 10.0 mi SE 4.6 mph - N/A   Clear
6:13 AM 51.8 °F 48.2 °F 88% 30.03 in 10.0 mi SE 5.8 mph - N/A   Clear
6:34 AM 51.8 °F 48.2 °F 88% 30.03 in 10.0 mi SE 4.6 mph - N/A   Clear
6:53 AM 51.8 °F 48.2 °F 88% 30.03 in 10.0 mi Calm Calm - N/A   Clear
7:13 AM 53.6 °F 48.2 °F 82% 30.03 in 10.0 mi Calm Calm - N/A   Clear
7:34 AM 53.6 °F 48.2 °F 82% 30.02 in 10.0 mi ESE 3.5 mph - N/A   Clear
7:53 AM 55.4 °F 48.2 °F 77% 30.02 in 10.0 mi SE 4.6 mph - N/A   Clear
8:14 AM 55.4 °F 50.0 °F 82% 30.02 in 10.0 mi SSE 5.8 mph - N/A   Clear
8:34 AM 57.2 °F 50.0 °F 77% 30.02 in 10.0 mi SE 5.8 mph - N/A   Clear
8:53 AM 59.0 °F 50.0 °F 72% 30.02 in 10.0 mi SE 6.9 mph - N/A   Clear
9:14 AM 60.8 °F 50.0 °F 68% 30.03 in 10.0 mi SE 5.8 mph - N/A   Clear
9:33 AM 60.8 °F 50.0 °F 68% 30.03 in 10.0 mi SSE 5.8 mph - N/A   Clear
9:53 AM 62.6 °F 51.8 °F 68% 30.03 in 10.0 mi SSE 5.8 mph - N/A   Clear
10:13 AM 62.6 °F 50.0 °F 63% 30.03 in 10.0 mi SSE 6.9 mph - N/A   Clear
10:34 AM 62.6 °F 50.0 °F 63% 30.04 in 10.0 mi South 8.1 mph - N/A   Clear
10:53 AM 64.4 °F 50.0 °F 59% 30.03 in 10.0 mi SSE 4.6 mph - N/A   Scattered Clouds
11:13 AM 66.2 °F 50.0 °F 56% 30.03 in 10.0 mi SSE 9.2 mph - N/A   Scattered Clouds
11:33 AM 66.2 °F 50.0 °F 56% 30.02 in 10.0 mi SSE 8.1 mph - N/A   Clear
11:54 AM 66.2 °F 50.0 °F 56% 30.02 in 10.0 mi SSE 6.9 mph - N/A   Clear
12:13 PM 64.4 °F 50.0 °F 59% 30.02 in 10.0 mi SSE 5.8 mph - N/A   Clear
12:33 PM 62.6 °F 50.0 °F 63% 30.01 in 10.0 mi SE 4.6 mph - N/A   Clear
12:54 PM 62.6 °F 50.0 °F 63% 30.01 in 10.0 mi SE 5.8 mph - N/A   Clear
1:13 PM 62.6 °F 50.0 °F 63% 30.00 in 10.0 mi SE 4.6 mph - N/A   Clear
1:33 PM 62.6 °F 50.0 °F 63% 29.99 in 10.0 mi SSE 5.8 mph - N/A   Clear
1:54 PM 66.2 °F 51.8 °F 60% 29.98 in 10.0 mi SE 6.9 mph - N/A   Clear
2:13 PM 66.2 °F 51.8 °F 60% 29.97 in 10.0 mi SSE 5.8 mph - N/A   Clear
2:34 PM 66.2 °F 51.8 °F 60% 29.97 in 10.0 mi SSE 6.9 mph - N/A   Clear
2:53 PM 64.4 °F 51.8 °F 64% 29.97 in 10.0 mi SSE 5.8 mph - N/A   Clear
3:13 PM 64.4 °F 51.8 °F 64% 29.96 in 10.0 mi SSE 4.6 mph - N/A   Clear
3:33 PM 64.4 °F 51.8 °F 64% 29.96 in 10.0 mi SE 5.8 mph - N/A   Clear
3:54 PM 64.4 °F 51.8 °F 64% 29.95 in 10.0 mi ESE 4.6 mph - N/A   Clear
4:13 PM 64.4 °F 53.6 °F 68% 29.94 in 10.0 mi SE 5.8 mph - N/A   Clear
4:34 PM 64.4 °F 53.6 °F 68% 29.95 in 10.0 mi SE 3.5 mph - N/A   Clear
4:53 PM 62.6 °F 53.6 °F 72% 29.95 in 10.0 mi ESE 6.9 mph - N/A Rain Light Rain
5:13 PM 60.8 °F 53.6 °F 77% 29.94 in 10.0 mi ESE 5.8 mph - N/A Rain Light Rain
5:34 PM 60.8 °F 53.6 °F 77% 29.93 in 7.0 mi SE 5.8 mph - N/A Rain Light Rain
5:53 PM 60.8 °F 55.4 °F 82% 29.93 in 10.0 mi ESE 5.8 mph - 0.01 in   Clear
6:13 PM 60.8 °F 55.4 °F 82% 29.93 in 10.0 mi SE 4.6 mph - N/A   Clear
6:34 PM 62.6 °F 55.4 °F 77% 29.94 in 10.0 mi SSE 3.5 mph - N/A   Scattered Clouds
6:53 PM 62.6 °F 53.6 °F 72% 29.95 in 10.0 mi SSE 5.8 mph - N/A   Mostly Cloudy
7:13 PM 62.6 °F 53.6 °F 72% 29.96 in 10.0 mi SSE 5.8 mph - N/A   Mostly Cloudy
7:34 PM 62.6 °F 53.6 °F 72% 29.95 in 10.0 mi SSE 9.2 mph - N/A Rain Rain
7:53 PM 62.6 °F 53.6 °F 72% 29.95 in 10.0 mi SSE 6.9 mph - N/A   Scattered Clouds
8:13 PM 62.6 °F 53.6 °F 72% 29.94 in 10.0 mi SSE 6.9 mph - N/A   Scattered Clouds
8:34 PM 64.4 °F 53.6 °F 68% 29.95 in 10.0 mi SSE 5.8 mph 16.1 mph N/A Rain Light Rain
8:53 PM 64.4 °F 53.6 °F 68% 29.96 in 10.0 mi SSE 11.5 mph - N/A   Scattered Clouds
9:13 PM 64.4 °F 51.8 °F 64% 29.96 in 10.0 mi SSE 8.1 mph 17.3 mph N/A   Scattered Clouds
9:34 PM 64.4 °F 51.8 °F 64% 29.95 in 10.0 mi SSE 10.4 mph - N/A   Clear
9:53 PM 64.4 °F 51.8 °F 64% 29.95 in 10.0 mi SSE 6.9 mph 17.3 mph N/A   Clear
10:13 PM 64.4 °F 51.8 °F 64% 29.94 in 10.0 mi SSE 9.2 mph 16.1 mph N/A   Clear
10:34 PM 62.6 °F 50.0 °F 63% 29.94 in 10.0 mi SSE 10.4 mph 18.4 mph N/A   Clear
10:54 PM 62.6 °F 48.2 °F 59% 29.94 in 10.0 mi SSE 10.4 mph - N/A   Clear
11:13 PM 62.6 °F 48.2 °F 59% 29.94 in 10.0 mi South 9.2 mph 18.4 mph N/A   Clear
11:34 PM 62.6 °F 48.2 °F 59% 29.94 in 10.0 mi SSE 8.1 mph - N/A   Clear
11:53 PM 62.6 °F 48.2 °F 59% 29.93 in 10.0 mi SSE 9.2 mph - N/A   Clear